Location: Unspecified
(0.0000°N, 0.0000°E)
Time: 09:31:59
(UTC+00:00)

Vanguard 2 - Pass Details

Date: 26 October 2021
Orbit: 554 x 2936 km, 32.9° (Epoch: 06 December)

Event Time Altitude Azimuth Distance (km) Brightness Sun altitude
Rises 08:40:25 0° 313° (NW) 2,870 10.1 42.8°
Reaches altitude 10° 08:42:49 10° 318° (NW) 1,864 9.2 43.4°
Maximum altitude 08:46:44 51° 35° (NE) 693 8.1 44.3°
Drops below altitude 10° 08:50:48 10° 112° (ESE) 1,939 10.7 45.3°
Sets 08:53:21 0° 117° (ESE) 3,001 11.3 45.9°
